SCP
0 0 0 0 0 0 0 0 0 0 0 0 0 0 0 0 0 0 0 0 0 0 0 0 0 0 0 0 0 0 0 0 0 0 0 0 0 0 0 0 0 0 0 0 0 0 0 0 0
0 0 0 0 0 0 0 0 0 0 0 0 0 0 0 0 0 0 0 0 0 0 0 0 0 0 0 0 0 0 0 0 0 0 0 0 0 0 0 0 0 0 0 0 0 0 0 0 0
0 0 0 0 0 0 0 0 0 0 0 0 0 0 0 0 0 0 0 0 0 0 0 0 0 0 0 0 0 0 0 0 0 0 0 0 0 0 0 0 0 0 0 0 0 0 0 0 0
0 0 0 0 0 0 0 0 0 0 0 0 0 0 0 0 0 0 0 0 0 0 0 0 0 0 0 0 0 0 0 0 0 0 0 0 0 0 0 0 0 0 0 0 0 0 0 0 0
0 0 0 0 0 0 0 0 0 0 0 0 0 0 0 0 0 0 0 0 0 0 0 0 0 0 0 0 0 0 0 0 0 0 0 0 0 0 0 0 0 0 0 0 0 0 0 0 0
0 0 0 0 0 0 0 0 0 0 0 0 0 0 0 0 0 0 0 0 0 0 0 0 0 0 0 0 0 0 0 0 0 0 0 0 0 0 0 0 0 0 0 0 0 0 0 0 0
0 0 0 0 0 0 0 0 0 0 0 0 0 0 0 0 0 0 0 0 0 0 0 0 0 0 0 0 0 0 0 0 0 0 0 0 0 0 0 0 0 0 0 0 0 0 0 0 0
0 0 0 0 0 0 0 0 0 0 0 0 0 0 0 0 0 0 0 0 0 0 0 0 0 0 0 0 0 0 0 0 0 0 0 0 0 0 0 0 0 0 0 0 0 0 0 0 0
0 0 0 0 0 0 0 0 0 0 0 0 0 0 0 0 0 0 0 0 0 0 0 0 0 0 0 0 0 0 0 0 0 0 0 0 0 0 0 0 0 0 0 0 0 0 0 0 0
0 0 0 0 0 0 0 0 0 0 0 0 0 0 0 0 0 0 0 0 0 0 0 0 0 0 0 0 0 0 0 0 0 0 0 0 0 0 0 0 0 0 0 0 0 0 0 0 0
0 0 0 0 0 0 0 0 0 0 0 0 0 0 0 0 0 0 0 0 0 0 0 0 0 0 0 0 0 0 0 0 0 0 0 0 0 0 0 0 0 0 0 0 0 0 0 0 0
0 0 0 0 0 0 0 0 0 0 0 0 0 0 0 0 0 0 0 0 0 0 0 0 0 0 0 0 0 0 0 0 0 0 0 0 0 0 0 0 0 0 0 0 0 0 0 0 0
0 0 0 0 0 0 0 0 0 0 0 0 0 0 0 0 0 0 0 0 0 0 0 0 0 0 0 0 0 0 0 0 0 0 0 0 0 0 0 0 0 0 0 0 0 0 0 0 0
0 0 0 0 0 0 0 0 0 0 0 0 0 0 0 0 0 0 0 0 0 0 0 0 0 0 0 0 0 0 0 0 0 0 0 0 0 0 0 0 0 0 0 0 0 0 0 0 0
0 0 0 0 0 0 0 0 0 0 0 0 0 0 0 0 0 0 0 0 0 0 0 0 0 0 0 0 0 0 0 0 0 0 0 0 0 0 0 0 0 0 0 0 0 0 0 0 0
0 0 0 0 0 0 0 0 0 0 0 0 0 0 0 0 0 0 0 0 0 0 0 0 0 0 0 0 0 0 0 0 0 0 0 0 0 0 0 0 0 0 0 0 0 0 0 0 0
0 0 0 0 0 0 0 0 0 0 0 0 0 0 0 0 0 0 0 0 0 0 0 0 0 0 0 0 0 0 0 0 0 0 0 0 0 0 0 0 0 0 0 0 0 0 0 0 0
0 0 0 0 0 0 0 0 0 0 0 0 0 0 0 0 0 0 0 0 0 0 0 0 0 0 0 0 0 0 0 0 0 0 0 0 0 0 0 0 0 0 0 0 0 0 0 0 0
0 0 0 0 0 0 0 0 0 0 0 0 0 0 0 0 0 0 0 0 0 0 0 0 0 0 0 0 0 0 0 0 0 0 0 0 0 0 0 0 0 0 0 0 0 0 0 0 0
0 0 0 0 0 0 0 0 0 0 0 0 0 0 0 0 0 0 0 0 0 0 0 0 0 0 0 0 0 0 0 0 0 0 0 0 0 0 0 0 0 0 0 0 0 0 0 0 0
0 0 0 0 0 0 0 0 0 0 0 0 0 0 0 0 0 0 0 0 0 0 0 0 0 0 0 0 0 0 0 0 0 0 0 0 0 0 0 0 0 0 0 0 0 0 0 0 0
0 0 0 0 0 0 0 0 0 0 0 0 0 0 0 0 0 0 0 0 0 0 0 0 0 0 0 0 0 0 0 0 0 0 0 0 0 0 0 0 0 0 0 0 0 0 0 0 0
0 0 0 0 0 0 0 0 0 0 0 0 0 0 0 0 0 0 0 0 0 0 0 0 0 0 0 0 0 0 0 0 0 0 0 0 0 0 0 0 0 0 0 0 0 0 0 0 0
0 0 0 0 0 0 0 0 0 0 0 0 0 0 0 0 0 0 0 0 0 0 0 0 0 0 0 0 0 0 0 0 0 0 0 0 0 0 0 0 0 0 0 0 0 0 0 0 0
0 0 0 0 0 0 0 0 0 0 0 0 0 0 0 0 0 0 0 0 0 0 0 0 0 0 0 0 0 0 0 0 0 0 0 0 0 0 0 0 0 0 0 0 0 0 0 0 0
0 0 0 0 0 0 0 0 0 0 0 0 0 0 0 0 0 0 0 0 0 0 0 0 0 0 0 0 0 0 0 0 0 0 0 0 0 0 0 0 0 0 0 0 0 0 0 0 0
0 0 0 0 0 0 0 0 0 0 0 0 0 0 0 0 0 0 0 0 0 0 0 0 0 0 0 0 0 0 0 0 0 0 0 0 0 0 0 0 0 0 0 0 0 0 0 0 0
0 0 0 0 0 0 0 0 0 0 0 0 0 0 0 0 0 0 0 0 0 0 0 0 0 0 0 0 0 0 0 0 0 0 0 0 0 0 0 0 0 0 0 0 0 0 0 0 0
0 0 0 0 0 0 0 0 0 0 0 0 0 0 0 0 0 0 0 0 0 0 0 0 0 0 0 0 0 0 0 0 0 0 0 0 0 0 0 0 0 0 0 0 0 0 0 0 0
0 0 0 0 0 0 0 0 0 0 0 0 0 0 0 0 0 0 0 0 0 0 0 0 0 0 0 0 0 0 0 0 0 0 0 0 0 0 0 0 0 0 0 0 0 0 0 0 0
Wind_Speed
3 2 2 4 7 5 1 2 2 2 3 2 2 6 8 6 5 2 0 9 7 10 11 14 18 16 15 14 13 13 12 11 11 11 11 11 11 11 11 11 11 11 12 12 12 12 12 13 13
1 1 5 6 6 2 3 3 3 4 3 2 3 3 3 2 1 2 2 8 8 12 10 10 18 17 16 15 14 13 13 12 11 11 10 10 10 10 10 10 10 11 11 11 11 11 11 12 12
0 3 5 5 4 4 3 3 4 3 0 2 2 1 2 2 1 3 4 9 9 11 9 11 19 18 17 16 15 14 13 12 11 11 10 10 10 10 9 9 10 10 10 10 10 10 10 11 11
3 5 6 5 2 4 4 3 1 1 1 1 3 1 0 1 1 1 7 10 11 10 8 11 19 18 17 16 15 14 13 12 12 11 10 10 9 9 9 9 9 9 9 9 9 9 10 10 10
4 5 5 2 2 3 3 3 1 1 1 1 3 3 1 1 1 4 10 11 12 10 7 9 18 18 17 16 15 14 13 12 12 11 10 10 9 9 8 8 8 8 8 8 8 9 9 9 9
5 5 5 1 3 4 3 2 1 0 1 0 3 3 2 1 2 5 9 9 10 10 8 8 18 17 17 16 15 14 13 12 11 11 10 10 9 8 8 7 6 6 6 7 7 7 8 8 8
5 4 4 2 2 3 2 1 2 1 1 1 4 3 3 1 3 6 7 8 8 8 7 7 9 12 16 16 15 14 13 13 11 11 10 10 9 8 7 6 6 5 5 5 5 6 6 6 6
4 5 3 1 1 2 3 1 1 2 2 0 3 4 3 2 6 8 7 7 7 7 7 6 7 8 8 9 13 14 13 12 12 11 10 9 8 7 7 5 4 4 3 3 3 4 4 5 5
4 5 2 3 3 3 1 1 1 1 1 0 1 2 1 6 8 9 6 5 7 9 7 6 7 7 7 7 9 11 11 11 10 9 10 8 4 4 4 5 4 3 2 1 1 2 3 4 5
4 3 4 3 3 3 1 1 2 1 1 2 3 1 3 6 8 9 9 11 13 13 10 7 7 7 7 6 6 5 5 5 5 4 5 4 4 3 4 4 4 3 2 1 2 3 4 4 2
3 5 4 3 3 2 2 3 2 2 5 7 7 5 5 6 7 8 9 10 12 12 12 9 8 8 7 5 4 3 3 3 4 5 5 5 4 3 2 1 1 1 1 1 2 3 1 1 1
2 3 3 3 2 2 3 3 3 6 10 7 6 4 6 7 9 10 10 9 8 10 12 10 9 8 7 6 5 4 4 3 3 4 6 4 3 3 3 2 2 1 1 1 1 1 2 2 2
2 3 2 3 3 3 4 5 5 8 9 3 2 4 7 8 8 6 5 6 7 10 12 11 10 9 8 7 5 5 4 5 5 4 5 6 4 4 3 2 2 3 2 2 2 2 2 3 3
2 2 4 5 4 3 5 5 4 10 4 2 4 6 7 7 7 5 5 6 8 11 12 11 12 10 9 7 6 5 5 4 5 4 6 6 4 4 4 3 3 3 3 3 3 3 3 3 3
1 3 6 4 2 2 2 6 7 7 2 3 4 5 5 6 5 6 7 7 8 9 10 12 12 11 10 9 7 5 5 5 4 4 5 6 5 5 4 3 3 3 3 3 2 2 2 3 3
3 3 4 6 2 1 2 8 9 2 4 5 5 5 5 5 5 5 5 6 6 7 9 11 10 11 10 8 7 5 5 5 4 4 4 5 5 5 4 3 3 2 2 2 2 2 2 3 3
3 1 3 7 3 0 2 8 9 2 3 7 7 6 6 5 5 4 4 5 6 8 9 11 10 11 10 8 6 5 4 4 3 3 3 4 4 4 3 3 2 2 2 2 2 2 2 2 3
4 3 4 5 4 1 5 11 13 6 6 9 8 7 7 7 6 3 2 2 4 6 8 9 9 9 9 6 5 4 4 3 3 3 3 3 3 3 3 2 2 2 2 1 1 2 1 2 2
4 4 6 7 5 3 9 13 16 10 7 10 9 9 9 8 4 2 1 2 4 5 7 8 9 9 8 6 5 5 3 2 2 2 2 3 3 3 3 2 1 2 1 1 1 1 1 1 1
3 4 6 8 4 4 7 13 13 10 9 10 11 12 11 7 4 3 3 3 4 5 6 7 8 9 8 6 4 3 4 3 2 2 3 3 3 2 2 2 1 1 1 1 1 1 0 1 0
5 6 7 7 6 4 6 11 8 7 5 6 8 8 8 10 9 6 5 4 4 5 6 7 8 8 8 7 6 5 4 3 2 2 2 2 2 3 3 2 2 2 1 1 1 1 2 1 1
7 8 7 5 3 5 2 8 10 7 8 8 8 7 9 8 7 7 6 5 5 5 5 6 7 8 8 8 8 7 5 4 3 2 2 2 3 3 3 3 3 2 2 1 1 1 1 2 1
8 2 3 2 3 4 2 5 12 6 9 10 8 8 8 8 9 9 7 6 5 5 5 6 7 7 7 7 8 7 5 4 3 3 3 3 2 3 3 3 2 2 1 1 1 0 1 2 2
5 6 4 4 3 4 5 6 11 7 8 8 5 6 8 8 7 7 6 5 5 5 5 6 8 6 6 7 7 8 8 7 6 4 3 2 1 1 2 2 2 1 1 1 1 1 2 2 3
5 5 2 3 1 7 3 4 13 12 8 8 9 7 7 8 9 9 9 8 7 7 7 7 8 7 6 7 6 7 7 7 7 5 4 3 2 1 1 1 1 1 1 1 1 1 2 2 3
7 10 8 6 5 5 2 8 12 10 8 8 7 6 7 9 9 10 10 9 8 8 8 8 8 7 7 7 6 6 6 5 4 4 4 3 2 2 2 1 1 1 1 1 1 1 2 2 3
8 6 7 5 2 3 7 8 13 7 5 5 4 2 6 9 10 10 9 9 9 9 9 9 9 7 7 7 7 6 6 5 5 4 3 3 2 2 2 1 1 1 1 1 1 2 3 3 4
7 9 6 5 4 5 6 6 7 8 8 6 4 4 5 7 8 8 9 9 8 8 7 7 8 8 7 7 6 5 5 5 5 5 4 3 3 2 2 1 1 1 2 2 2 3 3 4 4
6 5 5 5 5 6 4 9 8 8 6 7 7 5 6 8 10 10 9 8 7 7 7 7 7 7 7 7 6 6 5 5 5 4 4 4 3 3 2 2 2 2 3 3 3 4 4 5 5
7 9 10 7 6 5 4 10 7 5 6 6 7 5 5 7 7 7 8 8 8 9 8 8 8 8 8 7 7 6 6 5 5 4 4 4 3 3 3 2 3 3 4 4 4 5 5 5 6
Wind_Direction
358 23 61 56 55 52 221 245 226 232 241 224 156 149 150 161 165 195 292 147 140 149 166 173 164 163 160 152 144 140 136 129 123 116 112 107 101 92 85 80 77 73 70 68 66 65 64 63 63
352 52 55 60 83 86 269 244 222 220 225 114 97 118 134 184 175 140 144 169 150 153 163 168 165 164 161 155 148 145 141 136 129 122 117 111 103 96 90 84 80 77 73 71 69 67 66 63 63
63 52 79 74 109 173 227 232 220 264 280 128 109 102 157 163 148 182 181 161 146 154 161 170 165 165 163 158 153 149 145 141 135 129 124 115 107 101 94 88 83 79 76 73 70 68 67 64 62
75 48 56 76 169 219 230 258 228 320 16 87 131 117 274 39 268 190 143 150 147 155 160 172 167 167 165 161 158 155 151 148 143 139 132 123 114 106 99 94 88 84 80 76 73 69 66 64 62
59 74 65 54 274 270 260 276 219 212 284 31 135 155 236 20 43 130 143 151 153 156 160 173 169 170 167 164 162 160 158 155 149 145 140 131 120 113 106 100 95 88 82 77 72 68 65 61 58
58 67 88 168 286 297 293 306 116 169 286 55 140 159 253 35 103 139 146 148 152 153 157 171 174 172 171 169 167 164 164 161 156 152 147 138 129 123 118 110 102 92 82 75 70 64 60 57 54
100 97 138 181 281 308 325 335 138 163 217 237 162 157 278 342 118 127 130 132 140 149 156 174 174 174 174 173 171 169 169 165 161 158 154 146 138 136 130 121 113 102 88 74 64 58 52 47 45
117 103 112 170 206 276 311 356 149 180 222 16 150 167 234 186 122 109 108 122 140 155 164 176 172 170 170 172 175 173 173 172 167 163 157 151 147 142 139 134 133 125 110 86 64 50 40 33 27
87 79 154 204 196 251 298 1 321 204 126 1 236 218 326 117 123 117 119 137 163 174 178 179 174 170 165 167 176 173 176 177 171 166 161 150 127 120 131 152 165 164 155 137 53 21 15 23 13
89 132 218 217 201 221 257 236 274 336 286 267 269 245 112 134 148 154 164 173 181 186 187 184 178 172 166 171 170 167 168 167 160 150 146 134 135 145 147 178 197 210 216 248 314 348 19 38 13
139 184 228 245 225 215 234 247 235 203 245 231 226 221 164 169 176 181 184 184 189 187 188 187 182 174 169 166 162 160 155 151 150 149 145 142 140 145 143 159 230 282 314 20 359 11 17 4 321
166 228 219 244 212 196 218 234 236 212 229 232 222 193 174 185 196 199 197 194 184 184 192 188 183 176 173 167 166 162 158 157 160 161 154 149 152 165 175 187 198 197 187 206 233 259 280 287 284
205 257 248 249 251 238 238 236 240 245 245 252 200 173 190 200 212 219 212 196 184 191 193 190 184 180 174 169 168 167 168 169 169 166 168 167 171 184 189 196 203 208 201 208 221 236 258 268 270
233 265 290 281 263 241 227 253 229 256 238 204 195 202 209 213 218 220 213 202 194 196 195 190 188 184 174 174 172 171 171 171 169 172 178 179 179 184 186 197 207 214 209 213 217 228 243 255 260
66 339 320 297 274 264 211 287 241 251 173 213 222 221 222 228 227 223 220 211 201 196 192 191 189 182 178 177 174 170 172 170 174 179 181 181 181 186 187 195 209 215 206 206 219 236 241 259 260
56 27 313 298 309 286 164 272 275 265 185 227 234 233 233 238 233 239 234 221 205 190 186 189 186 181 181 177 171 166 167 169 175 172 174 182 186 183 180 188 210 201 184 192 214 227 242 257 264
25 305 272 299 299 234 219 261 277 276 212 237 237 236 236 244 248 250 243 221 200 187 180 180 179 178 178 172 164 157 155 163 166 162 165 176 177 173 174 190 202 183 184 200 221 219 219 261 276
231 236 257 268 287 268 258 262 274 266 232 241 241 239 238 236 243 251 244 205 180 170 168 169 168 168 163 154 140 130 129 142 143 155 164 165 166 168 170 183 190 167 171 202 212 236 232 250 274
186 211 252 261 267 265 260 267 275 272 242 241 238 233 232 233 238 219 169 136 132 141 152 160 160 160 157 155 152 148 149 142 135 140 137 141 143 149 157 163 155 152 176 205 203 212 255 272 301
196 240 267 283 279 239 273 276 271 262 239 228 225 224 221 217 210 196 168 145 142 147 150 153 158 159 162 159 148 137 131 126 121 114 102 100 116 128 138 144 143 144 148 142 153 159 183 283 35
213 214 237 260 312 318 314 298 286 282 256 250 233 221 212 203 198 190 176 163 145 148 155 155 155 155 151 141 125 108 93 86 94 99 93 77 101 110 114 122 125 122 137 159 175 168 176 231 280
235 224 220 251 298 293 349 298 289 280 288 266 245 223 211 200 187 182 176 168 163 157 147 141 142 145 145 145 148 147 146 149 157 143 124 92 79 92 101 109 113 118 126 140 170 158 171 175 239
211 198 181 219 221 287 274 255 282 298 281 271 249 226 213 198 185 182 178 169 157 148 142 137 133 135 141 146 149 143 133 129 123 115 113 96 71 78 94 106 110 114 122 137 154 166 189 189 205
145 81 62 51 77 275 233 210 278 256 245 273 271 231 211 193 183 174 159 146 142 140 138 138 135 133 140 141 143 144 142 139 136 135 134 119 94 74 78 100 106 117 131 165 198 207 215 216 221
128 111 19 330 321 251 231 215 253 255 252 255 268 250 209 185 176 171 167 167 163 159 155 150 143 140 143 141 143 147 147 149 152 153 153 146 137 136 133 108 120 133 174 205 203 213 236 228 228
175 156 172 208 232 277 258 237 256 264 275 273 264 242 191 182 182 182 180 175 172 169 164 158 153 148 149 146 145 142 143 142 144 149 152 158 165 174 173 155 156 180 210 227 215 229 245 235 238
152 193 172 143 200 266 270 278 296 288 295 304 303 222 194 190 186 185 180 178 177 175 174 168 160 154 156 152 144 143 144 145 147 146 145 150 162 170 169 171 188 227 245 249 243 243 258 254 248
154 149 125 151 193 246 274 268 256 288 300 307 294 249 218 195 188 186 184 184 182 178 170 166 163 161 158 155 153 151 152 151 148 146 154 161 169 170 175 194 217 244 257 259 253 257 259 259 258
138 150 152 156 172 181 249 264 232 243 274 286 281 252 217 201 196 193 188 182 174 168 167 170 168 159 159 160 155 150 153 151 150 156 167 171 176 182 196 213 231 248 257 256 252 256 261 259 264
170 172 154 167 212 194 204 265 264 249 270 272 276 261 221 206 199 190 180 172 174 178 177 177 174 170 169 162 157 157 155 154 159 170 178 178 186 198 210 224 241 252 255 254 251 260 260 257 261